Voltar ao catálogo

FENGYUN 1C DEB

AtivoPO
NORAD 30419·DEBRIS·🇨🇳 China

Lançado May 10, 1999 de Taiyuan Satellite Launch Center

Loading…

Próximas Passagens (próximas 24 horas)

TLE

AtualizadoSource: Space-Track

Época: Sep 13, 2026, 04:11 UTC

1 30419U 99025AEJ 26256.17459640  .00000634  00000-0  32466-3 0  9996
2 30419  99.2636 219.6299 0051774 330.9403  42.8468 14.18664501 12403

Acompanhe FENGYUN 1C DEB em tempo real com AllMySat

Download on the App Store